Weather WX

World > North America > United States > Mississippi

Maben, Mississippi Regional Weather

Lat: 33.55N, Lon: 89.08W
Wx Zone: MSZ033
Warning FLW WEATHER ALERT - (More Info. Click Here) Warning
Feedback

Maben, MS Regional Weather

Expires:201906200000;;753966
ASUS44 KJAN 192310
RWRMS 

MISSISSIPPI HOURLY WEATHER ROUNDUP
NATIONAL WEATHER SERVICE JACKSON MS
600 PM CDT WED JUN 19 2019

NOTE: "FAIR: INDICATES FEW OR NO CLOUDS BELOW 12,000 FEET WITH NO
SIGNIFICANT WEATHER AND/OR OBSTRUCTIONS TO VISIBILITY.


MSZ003>006-009-014>017-022>024-029>033-037>039-200000-
NORTHEAST MISSISSIPPI
  
CITY           SKY/WX    TMP DP  RH WIND       PRES   REMARKS
ABERDEEN       FAIR      86  77  74 SW8G14    29.76F HX  97           
COLUMBUS AFB   FAIR      89  74  61 SW6       29.75F HX  98           
CORINTH        FAIR      88  70  55 SW13G21   29.72F HX  92           
GOLDN TRIANGLE FAIR      88  75  65 SW13      29.77F HX  97           
STARKVILLE     FAIR      88  72  58 SW7       29.78F HX  94           
TUPELO         FAIR      89  71  55 SW13      29.74F HX  95           
$$


SKY/WX - Weather  TMP - Temperature  DP - Dew Point  RH - Relative Humidity
WIND - Wind Direction/Speed PRES - Barometric Pressure VSB - Visibility
WCI - Wind Chill Index E13G22 Wind - East Wind 13 mph/Gusts of 22 mph